Time,TemperatureF,DewpointF,PressureIn,WindDirection,WindDirectionDegrees,WindSpeedMPH,WindSpeedGustMPH,Humidity,HourlyPrecipIn,Conditions,Clouds,dailyrainin,SoftwareType,DateUTC
2013-07-05 00:05:00,68.7,68.0,30.10,NW,306,0.0,0.0,96,0.00,,,0.66,weatherlink.com 1.10,2013-07-05 04:05:00,
2013-07-05 00:20:00,68.7,68.0,30.10,NW,306,0.0,0.0,97,0.00,,,0.00,weatherlink.com 1.10,2013-07-05 04:20:00,
2013-07-05 00:35:00,68.6,68.0,30.11,NW,306,0.0,0.0,97,0.00,,,0.00,weatherlink.com 1.10,2013-07-05 04:35:00,
2013-07-05 00:50:00,68.6,68.0,30.11,NW,306,0.0,0.0,97,0.00,,,0.00,weatherlink.com 1.10,2013-07-05 04:50:00,
2013-07-05 01:05:00,68.6,68.0,30.11,NW,306,0.0,0.0,97,0.00,,,0.00,weatherlink.com 1.10,2013-07-05 05:05:00,
2013-07-05 01:20:00,68.7,68.0,30.10,NW,306,0.0,0.0,97,0.00,,,0.00,weatherlink.com 1.10,2013-07-05 05:20:00,
2013-07-05 01:35:00,68.7,68.0,30.11,NW,306,0.0,0.0,97,0.00,,,0.00,weatherlink.com 1.10,2013-07-05 05:35:00,
2013-07-05 01:50:00,68.7,68.0,30.11,NW,306,0.0,0.0,97,0.00,,,0.00,weatherlink.com 1.10,2013-07-05 05:50:00,
2013-07-05 02:05:00,68.7,68.0,30.11,NW,306,0.0,0.0,97,0.00,,,0.00,weatherlink.com 1.10,2013-07-05 06:05:00,
2013-07-05 02:20:00,68.6,68.0,30.11,NW,306,0.0,0.0,97,0.00,,,0.00,weatherlink.com 1.10,2013-07-05 06:20:00,
2013-07-05 02:35:00,68.6,68.0,30.11,NW,306,0.0,0.0,97,0.00,,,0.00,weatherlink.com 1.10,2013-07-05 06:35:00,
2013-07-05 02:50:00,68.6,68.0,30.11,NW,306,0.0,0.0,97,0.00,,,0.00,weatherlink.com 1.10,2013-07-05 06:50:00,
2013-07-05 03:05:00,68.6,68.0,30.11,NW,306,0.0,0.0,97,0.00,,,0.00,weatherlink.com 1.10,2013-07-05 07:05:00,
2013-07-05 03:20:00,68.5,68.0,30.11,NW,306,0.0,0.0,97,0.00,,,0.00,weatherlink.com 1.10,2013-07-05 07:20:00,
2013-07-05 03:35:00,68.5,68.0,30.10,NW,306,0.0,0.0,97,0.00,,,0.00,weatherlink.com 1.10,2013-07-05 07:35:00,
2013-07-05 03:50:00,68.5,68.0,30.10,NW,306,0.0,0.0,97,0.00,,,0.00,weatherlink.com 1.10,2013-07-05 07:50:00,
2013-07-05 04:05:00,68.4,68.0,30.10,NW,306,0.0,0.0,97,0.00,,,0.00,weatherlink.com 1.10,2013-07-05 08:05:00,
2013-07-05 04:20:00,68.4,68.0,30.10,NW,306,0.0,0.0,97,0.00,,,0.00,weatherlink.com 1.10,2013-07-05 08:20:00,
2013-07-05 04:35:00,68.3,68.0,30.10,NW,306,0.0,0.0,97,0.00,,,0.00,weatherlink.com 1.10,2013-07-05 08:35:00,
2013-07-05 04:50:00,68.2,67.0,30.10,NW,306,0.0,0.0,97,0.00,,,0.00,weatherlink.com 1.10,2013-07-05 08:50:00,
2013-07-05 05:05:00,68.1,67.0,30.10,NW,306,0.0,0.0,97,0.00,,,0.00,weatherlink.com 1.10,2013-07-05 09:05:00,
2013-07-05 05:20:00,68.1,68.0,30.11,NW,306,0.0,0.0,98,0.00,,,0.00,weatherlink.com 1.10,2013-07-05 09:20:00,
2013-07-05 05:35:00,68.1,68.0,30.11,NW,306,0.0,0.0,98,0.00,,,0.00,weatherlink.com 1.10,2013-07-05 09:35:00,
2013-07-05 05:50:00,68.0,68.0,30.11,NW,306,0.0,0.0,98,0.00,,,0.00,weatherlink.com 1.10,2013-07-05 09:50:00,
2013-07-05 06:05:00,68.0,68.0,30.11,NW,306,0.0,0.0,98,0.00,,,0.00,weatherlink.com 1.10,2013-07-05 10:05:00,
2013-07-05 06:20:00,68.0,68.0,30.11,NW,306,0.0,0.0,98,0.00,,,0.00,weatherlink.com 1.10,2013-07-05 10:20:00,
2013-07-05 06:35:00,67.9,67.0,30.11,NW,306,0.0,0.0,98,0.00,,,0.00,weatherlink.com 1.10,2013-07-05 10:35:00,
2013-07-05 06:50:00,68.1,68.0,30.10,NW,306,0.0,0.0,98,0.00,,,0.00,weatherlink.com 1.10,2013-07-05 10:50:00,
2013-07-05 07:05:00,68.5,68.0,30.10,NW,306,0.0,0.0,98,0.00,,,0.00,weatherlink.com 1.10,2013-07-05 11:05:00,
2013-07-05 07:50:00,69.6,69.0,30.10,NW,306,0.0,1.0,98,0.00,,,0.00,weatherlink.com 1.10,2013-07-05 11:50:00,
2013-07-05 08:05:00,70.0,69.0,30.10,NW,306,0.0,0.0,98,0.00,,,0.00,weatherlink.com 1.10,2013-07-05 12:05:00,
2013-07-05 08:20:00,70.5,70.0,30.09,NW,306,0.0,0.0,98,0.00,,,0.00,weatherlink.com 1.10,2013-07-05 12:20:00,
2013-07-05 08:35:00,70.7,70.0,30.10,NW,306,0.0,0.0,98,0.00,,,0.00,weatherlink.com 1.10,2013-07-05 12:35:00,
2013-07-05 08:50:00,71.5,71.0,30.09,NW,306,0.0,0.0,98,0.00,,,0.00,weatherlink.com 1.10,2013-07-05 12:50:00,
2013-07-05 09:05:00,72.2,72.0,30.09,NW,306,0.0,0.0,98,0.00,,,0.00,weatherlink.com 1.10,2013-07-05 13:05:00,
2013-07-05 09:20:00,72.5,72.0,30.10,WNW,296,0.0,1.0,98,0.00,,,0.00,weatherlink.com 1.10,2013-07-05 13:20:00,
2013-07-05 09:35:00,72.8,72.0,30.09,WNW,297,0.0,1.0,98,0.00,,,0.00,weatherlink.com 1.10,2013-07-05 13:35:00,
2013-07-05 09:50:00,73.6,73.0,30.09,WNW,297,0.0,0.0,98,0.00,,,0.00,weatherlink.com 1.10,2013-07-05 13:50:00,
2013-07-05 10:05:00,74.0,73.0,30.09,WNW,296,0.0,1.0,97,0.00,,,0.00,weatherlink.com 1.10,2013-07-05 14:05:00,
2013-07-05 10:20:00,75.1,74.0,30.09,West,273,1.0,1.0,95,0.00,,,0.00,weatherlink.com 1.10,2013-07-05 14:20:00,
2013-07-05 10:51:00,77.5,74.0,30.09,NW,311,0.0,4.0,88,0.00,,,0.00,weatherlink.com 1.10,2013-07-05 14:51:00,
2013-07-05 11:06:00,77.6,73.0,30.09,WNW,303,0.0,3.0,86,0.00,,,0.00,weatherlink.com 1.10,2013-07-05 15:06:00,
2013-07-05 11:21:00,77.4,73.0,30.09,West,273,0.0,3.0,86,0.00,,,0.00,weatherlink.com 1.10,2013-07-05 15:21:00,
2013-07-05 11:36:00,77.7,73.0,30.09,SW,233,0.0,3.0,85,0.00,,,0.00,weatherlink.com 1.10,2013-07-05 15:36:00,
2013-07-05 11:51:00,78.5,72.0,30.09,East,83,2.0,4.0,81,0.00,,,0.00,weatherlink.com 1.10,2013-07-05 15:51:00,
2013-07-05 12:06:00,77.6,72.0,30.09,North,360,0.0,4.0,82,0.00,,,0.00,weatherlink.com 1.10,2013-07-05 16:06:00,
2013-07-05 12:21:00,77.6,73.0,30.09,SE,140,0.0,4.0,84,0.00,,,0.00,weatherlink.com 1.10,2013-07-05 16:21:00,
2013-07-05 12:36:00,78.3,73.0,30.09,WNW,299,0.0,4.0,84,0.00,,,0.00,weatherlink.com 1.10,2013-07-05 16:36:00,
2013-07-05 12:51:00,79.3,73.0,30.09,NW,313,0.0,3.0,81,0.00,,,0.00,weatherlink.com 1.10,2013-07-05 16:51:00,
2013-07-05 13:06:00,79.8,72.0,30.08,WSW,250,0.0,8.0,76,0.00,,,0.00,weatherlink.com 1.10,2013-07-05 17:06:00,
2013-07-05 13:21:00,81.0,72.0,30.08,WSW,254,2.0,9.0,73,0.00,,,0.00,weatherlink.com 1.10,2013-07-05 17:21:00,
2013-07-05 13:36:00,82.1,74.0,30.07,SW,221,0.0,5.0,75,0.00,,,0.00,weatherlink.com 1.10,2013-07-05 17:36:00,
2013-07-05 13:51:00,81.8,71.0,30.07,NNW,336,0.0,7.0,70,0.00,,,0.00,weatherlink.com 1.10,2013-07-05 17:51:00,
2013-07-05 14:06:00,80.2,70.0,30.07,NW,324,1.0,3.0,72,0.00,,,0.00,weatherlink.com 1.10,2013-07-05 18:06:00,
2013-07-05 14:21:00,80.4,73.0,30.06,WNW,302,0.0,2.0,78,0.00,,,0.00,weatherlink.com 1.10,2013-07-05 18:21:00,
2013-07-05 14:36:00,79.7,72.0,30.06,WNW,292,0.0,1.0,77,0.00,,,0.00,weatherlink.com 1.10,2013-07-05 18:36:00,
2013-07-05 14:51:00,77.7,73.0,30.07,NW,318,8.0,8.0,84,0.02,,,0.02,weatherlink.com 1.10,2013-07-05 18:51:00,
2013-07-05 15:06:00,74.9,72.0,30.07,NNW,329,0.0,7.0,89,0.02,,,0.02,weatherlink.com 1.10,2013-07-05 19:06:00,
2013-07-05 15:21:00,75.8,72.0,30.07,NNW,347,3.0,10.0,88,0.02,,,0.02,weatherlink.com 1.10,2013-07-05 19:21:00,
2013-07-05 15:36:00,76.3,72.0,30.07,NW,325,1.0,8.0,86,0.02,,,0.02,weatherlink.com 1.10,2013-07-05 19:36:00,
2013-07-05 15:51:00,76.7,72.0,30.07,NW,309,5.0,5.0,85,0.00,,,0.02,weatherlink.com 1.10,2013-07-05 19:51:00,
2013-07-05 16:06:00,75.8,71.0,30.07,NNW,329,1.0,11.0,85,0.00,,,0.02,weatherlink.com 1.10,2013-07-05 20:06:00,
2013-07-05 16:21:00,76.4,71.0,30.07,NW,321,3.0,7.0,83,0.00,,,0.02,weatherlink.com 1.10,2013-07-05 20:21:00,
2013-07-05 16:36:00,77.2,72.0,30.07,North,355,0.0,9.0,83,0.00,,,0.02,weatherlink.com 1.10,2013-07-05 20:36:00,
2013-07-05 16:51:00,76.7,69.0,30.06,SSW,192,4.0,8.0,78,0.00,,,0.02,weatherlink.com 1.10,2013-07-05 20:51:00,
2013-07-05 17:06:00,76.3,69.0,30.06,WNW,290,4.0,9.0,79,0.00,,,0.02,weatherlink.com 1.10,2013-07-05 21:06:00,
2013-07-05 17:21:00,76.1,70.0,30.06,NW,304,3.0,6.0,80,0.00,,,0.02,weatherlink.com 1.10,2013-07-05 21:21:00,
2013-07-05 17:36:00,75.8,69.0,30.06,WNW,298,1.0,8.0,79,0.00,,,0.02,weatherlink.com 1.10,2013-07-05 21:36:00,
2013-07-05 17:51:00,75.3,69.0,30.05,NW,306,0.0,5.0,81,0.00,,,0.02,weatherlink.com 1.10,2013-07-05 21:51:00,
2013-07-05 18:06:00,75.0,68.0,30.05,NNW,344,4.0,9.0,80,0.00,,,0.02,weatherlink.com 1.10,2013-07-05 22:06:00,
2013-07-05 18:21:00,74.4,69.0,30.05,North,355,0.0,6.0,83,0.00,,,0.02,weatherlink.com 1.10,2013-07-05 22:21:00,
2013-07-05 18:36:00,73.7,70.0,30.05,WNW,298,0.0,1.0,87,0.01,,,0.03,weatherlink.com 1.10,2013-07-05 22:36:00,
2013-07-05 18:51:00,73.2,69.0,30.06,NW,304,0.0,3.0,87,0.01,,,0.03,weatherlink.com 1.10,2013-07-05 22:51:00,
2013-07-05 19:06:00,72.8,69.0,30.06,SE,135,0.0,4.0,88,0.01,,,0.03,weatherlink.com 1.10,2013-07-05 23:06:00,
2013-07-05 19:21:00,72.6,69.0,30.06,NW,321,0.0,3.0,88,0.01,,,0.03,weatherlink.com 1.10,2013-07-05 23:21:00,
2013-07-05 19:36:00,72.2,69.0,30.07,NW,321,0.0,5.0,90,0.00,,,0.03,weatherlink.com 1.10,2013-07-05 23:36:00,
2013-07-05 19:51:00,71.7,69.0,30.07,SW,219,0.0,0.0,91,0.00,,,0.03,weatherlink.com 1.10,2013-07-05 23:51:00,
2013-07-05 20:06:00,71.6,69.0,30.07,WSW,252,0.0,0.0,92,0.00,,,0.03,weatherlink.com 1.10,2013-07-06 00:06:00,
2013-07-05 20:21:00,71.4,69.0,30.06,SW,222,0.0,0.0,92,0.00,,,0.03,weatherlink.com 1.10,2013-07-06 00:21:00,
2013-07-05 20:36:00,71.1,69.0,30.06,SE,132,0.0,0.0,93,0.00,,,0.03,weatherlink.com 1.10,2013-07-06 00:36:00,
2013-07-05 20:51:00,70.8,69.0,30.06,SE,132,0.0,0.0,93,0.00,,,0.03,weatherlink.com 1.10,2013-07-06 00:51:00,
2013-07-05 21:06:00,70.4,68.0,30.06,SE,132,0.0,0.0,93,0.00,,,0.03,weatherlink.com 1.10,2013-07-06 01:06:00,
2013-07-05 21:21:00,69.9,68.0,30.07,SE,132,0.0,0.0,94,0.00,,,0.03,weatherlink.com 1.10,2013-07-06 01:21:00,
2013-07-05 21:36:00,69.8,68.0,30.07,SE,132,0.0,0.0,94,0.00,,,0.03,weatherlink.com 1.10,2013-07-06 01:36:00,
2013-07-05 21:51:00,69.6,68.0,30.07,SE,132,0.0,0.0,94,0.00,,,0.03,weatherlink.com 1.10,2013-07-06 01:51:00,
2013-07-05 22:06:00,69.2,68.0,30.07,SE,132,0.0,0.0,94,0.00,,,0.03,weatherlink.com 1.10,2013-07-06 02:06:00,
2013-07-05 22:21:00,69.0,68.0,30.08,SE,132,0.0,0.0,95,0.00,,,0.03,weatherlink.com 1.10,2013-07-06 02:21:00,
2013-07-05 22:36:00,68.6,67.0,30.08,SE,132,0.0,0.0,95,0.00,,,0.03,weatherlink.com 1.10,2013-07-06 02:36:00,
2013-07-05 22:51:00,68.5,67.0,30.07,SE,132,0.0,0.0,95,0.00,,,0.03,weatherlink.com 1.10,2013-07-06 02:51:00,
2013-07-05 23:06:00,68.5,67.0,30.07,North,360,0.0,0.0,95,0.00,,,0.03,weatherlink.com 1.10,2013-07-06 03:06:00,
2013-07-05 23:21:00,68.6,67.0,30.07,North,360,0.0,0.0,95,0.00,,,0.03,weatherlink.com 1.10,2013-07-06 03:21:00,
2013-07-05 23:36:00,68.6,67.0,30.07,NNW,341,0.0,0.0,95,0.00,,,0.03,weatherlink.com 1.10,2013-07-06 03:36:00,